EST,Max TemperatureF,Mean TemperatureF,Min TemperatureF,Max Dew PointF,MeanDew PointF,Min DewpointF,Max Humidity, Mean Humidity, Min Humidity, Max Sea Level PressureIn, Mean Sea Level PressureIn, Min Sea Level PressureIn, Max VisibilityMiles, Mean VisibilityMiles, Min VisibilityMiles, Max Wind SpeedMPH, Mean Wind SpeedMPH, Max Gust SpeedMPH,PrecipitationIn, CloudCover, Events, WindDirDegrees
2013-1-1,78,74,70,70,65,59,93,77,61,30.16,30.10,30.04,10,10,9,21,10,25,0.00,3,,117
2013-1-2,78,75,71,72,70,68,93,85,76,30.09,30.05,30.02,10,10,10,9,5,15,T,4,,109
2013-1-3,80,76,72,73,71,69,94,84,74,30.13,30.08,30.04,10,10,10,10,5,17,0.00,0,,104
2013-1-4,82,76,70,74,71,69,100,87,74,30.23,30.17,30.11,10,9,1,13,6,16,0.00,5,,26
2013-1-5,79,75,70,72,71,69,100,87,74,30.22,30.18,30.13,10,9,0,15,8,20,T,4,Fog-Rain,54
2013-1-6,81,77,73,73,72,70,94,84,74,30.16,30.11,30.05,10,10,10,15,7,20,0.00,0,,107
2013-1-7,80,76,73,72,70,67,93,82,67,30.14,30.09,30.06,10,10,10,10,5,,0.00,0,,91
2013-1-8,81,77,73,72,71,70,93,81,69,30.18,30.11,30.06,10,10,10,18,10,24,0.00,2,,85
2013-1-9,81,79,77,72,71,71,82,78,74,30.22,30.17,30.12,10,10,9,22,16,29,0.00,2,,112
2013-1-10,81,79,76,71,69,67,82,75,67,30.25,30.20,30.13,10,10,10,24,16,30,0.00,1,,98
2013-1-11,82,77,72,70,66,61,82,67,51,30.22,30.16,30.13,10,10,10,22,14,29,T,1,,98
2013-1-12,81,78,74,70,68,66,82,75,67,30.16,30.11,30.07,10,10,10,18,13,23,T,3,Rain,104
2013-1-13,80,77,74,70,66,60,82,72,62,30.10,30.07,30.04,10,10,10,22,15,28,T,2,Rain,109
2013-1-14,80,77,73,65,63,60,73,66,58,30.15,30.12,30.09,10,10,10,18,13,24,0.00,1,,113
2013-1-15,81,78,74,69,66,63,79,69,58,30.12,30.08,30.04,10,10,10,16,12,21,0.00,3,,111
2013-1-16,80,76,72,70,67,65,84,76,67,30.10,30.05,30.01,10,10,10,15,7,18,T,3,,111
2013-1-17,79,74,68,72,68,57,93,83,73,30.15,30.07,30.02,10,9,2,25,11,33,0.29,7,Rain,265
2013-1-18,68,64,60,58,55,52,78,71,63,30.24,30.19,30.14,10,10,10,18,10,25,T,7,Rain,5
2013-1-19,75,68,60,63,58,54,84,69,53,30.22,30.16,30.11,10,10,10,9,4,12,0.00,8,,358
2013-1-20,76,72,68,68,66,63,97,83,69,30.15,30.09,30.04,10,10,10,12,5,13,0.00,7,,20
2013-1-21,77,73,69,68,66,63,97,85,73,30.11,30.06,30.02,10,10,9,15,8,18,0.00,3,,337
2013-1-22,73,70,67,63,60,58,78,72,66,30.20,30.12,30.05,10,10,10,17,12,24,0.00,2,,355
2013-1-23,75,71,67,59,58,56,78,68,57,30.27,30.23,30.18,10,10,10,17,10,25,T,1,,47
2013-1-24,74,70,66,60,58,57,78,68,57,30.29,30.24,30.19,10,10,10,17,9,24,0.00,0,,36
2013-1-25,76,70,64,61,58,56,78,66,53,30.28,30.22,30.17,10,10,10,16,9,22,0.00,1,,47
2013-1-26,75,71,67,63,62,60,81,73,64,30.24,30.20,30.16,10,10,10,18,10,23,0.00,1,,29
2013-1-27,78,74,70,68,66,63,84,77,69,30.24,30.20,30.17,10,10,9,21,10,29,T,7,,61
2013-1-28,79,76,72,68,67,65,84,76,67,30.28,30.22,30.19,10,10,10,17,13,26,0.00,3,,98
2013-1-29,80,77,74,70,68,67,84,78,71,30.21,30.15,30.09,10,10,10,22,14,29,0.00,2,,116
2013-1-30,79,76,72,70,67,64,82,72,62,30.09,30.04,29.98,10,10,10,22,13,32,0.00,1,,142
2013-1-31,76,71,65,72,64,55,87,78,68,30.18,30.09,29.98,10,10,8,28,13,35,T,6,Rain,349